Wind_Speed
10 10 11 11 12 12 12 13 13 13 14 14 15 15 14 15 15 16 16 16 16 16 17 16 16 16 17 17 17 17 17 17 17 17 18 18 19 19 18 18 19 19 19
12 12 12 12 12 13 13 13 14 14 14 15 15 16 16 16 17 17 17 17 17 17 17 17 17 17 17 17 18 18 18 17 18 18 18 19 19 20 20 19 19 19 20
12 13 13 13 14 14 14 14 14 14 15 16 16 17 17 17 18 18 17 17 18 18 18 18 18 18 18 18 18 18 18 19 19 19 19 19 20 20 21 21 20 20 21
13 13 14 14 14 14 14 15 16 16 16 17 17 18 18 18 18 18 18 18 18 19 18 19 19 19 19 19 19 19 19 19 20 20 20 20 19 20 20 21 21 21 22
14 15 15 14 15 15 15 16 17 17 18 18 19 19 19 19 18 19 19 19 19 19 19 19 20 20 20 20 20 20 20 20 21 20 20 20 20 20 21 22 22 22 22
16 16 16 16 16 16 17 17 18 19 19 19 20 20 21 21 21 20 20 20 20 20 20 20 20 20 21 21 21 20 20 20 21 21 21 22 22 22 22 23 24 24 24
17 18 18 18 18 18 18 19 20 20 20 20 20 21 21 21 21 21 21 21 21 21 21 21 21 21 21 21 21 21 21 21 21 22 22 22 23 24 24 25 25 25 25
19 20 20 20 20 20 20 20 21 21 21 21 21 22 22 22 22 22 22 22 22 22 22 22 22 21 21 22 22 22 22 22 23 23 23 24 24 25 26 26 26 26 26
21 21 21 21 21 22 22 22 22 22 22 22 22 23 22 22 23 22 22 22 23 23 23 23 23 22 23 23 23 23 23 24 24 24 25 25 26 26 27 27 27 27 27
23 22 22 23 23 23 23 23 23 23 23 24 24 24 24 23 23 23 24 24 24 24 23 23 23 23 23 24 24 24 24 24 25 25 26 27 28 28 28 28 28 28 28
25 24 25 25 25 24 24 25 25 25 25 25 26 25 25 25 24 24 25 25 24 24 24 24 23 23 24 24 25 25 25 25 26 26 27 27 28 28 29 29 29 29 30
26 26 26 26 25 26 26 26 26 26 26 27 27 26 26 26 26 26 26 26 25 25 24 25 25 25 25 25 25 26 26 27 27 27 27 28 29 29 29 30 31 31 31
27 27 27 27 27 27 27 27 28 28 27 27 27 27 27 26 26 26 26 26 26 26 25 26 26 26 25 25 26 26 27 27 27 27 27 28 29 30 31 31 31 31 31
27 27 27 27 28 28 29 29 29 29 28 28 27 27 28 28 27 27 27 27 27 27 27 26 26 26 26 26 26 27 27 27 27 28 29 29 29 30 31 31 30 31 31
28 28 28 28 29 29 29 29 29 29 28 28 28 28 28 28 28 28 28 28 28 27 27 27 27 27 27 27 27 28 28 27 28 28 28 29 30 30 30 30 30 30 31
29 29 29 29 30 30 30 30 30 30 29 29 29 29 28 28 29 28 28 28 28 28 28 28 28 28 28 28 28 28 28 28 28 28 29 29 30 30 30 30 30 30 30
30 30 30 30 30 30 30 30 30 30 31 30 30 29 29 28 28 29 28 28 28 28 29 29 29 29 29 29 29 29 28 28 28 29 29 29 29 30 30 30 30 30 30
30 30 30 30 31 31 31 31 31 31 31 30 30 30 29 29 29 29 29 28 28 29 29 29 29 29 29 28 28 29 29 28 29 29 29 29 29 30 30 30 30 30 30
31 31 30 31 31 32 32 32 32 32 31 31 31 30 30 29 29 29 29 29 29 29 29 29 29 29 29 29 29 30 29 29 29 30 30 30 30 30 31 31 30 31 31
31 31 31 31 32 32 32 33 33 32 32 32 31 31 30 29 29 29 29 30 30 30 30 30 30 30 30 30 30 29 29 29 29 30 30 30 30 31 31 31 30 31 31
31 32 32 32 33 33 33 33 32 32 32 31 31 30 30 30 30 30 31 31 31 31 30 30 30 31 30 29 29 29 29 29 30 30 30 30 31 31 31 31 31 31 31
32 32 33 33 33 33 33 32 32 32 32 32 32 31 31 30 30 30 31 31 31 31 31 31 30 30 29 29 29 29 29 30 30 30 30 30 30 30 31 31 32 32 32
32 33 33 33 33 33 32 32 32 32 32 32 31 31 31 31 30 30 30 30 30 30 30 30 29 30 29 30 30 30 30 29 29 30 30 30 31 31 31 32 32 32 32
32 32 32 32 33 33 33 32 32 32 32 32 31 31 31 31 31 31 30 30 31 31 30 30 29 29 30 30 30 30 30 30 30 30 31 31 31 32 32 32 32 32 33
32 32 33 33 33 33 33 32 32 32 33 32 32 32 32 32 31 30 30 30 30 30 30 29 29 30 30 31 31 31 31 32 32 32 32 32 32 32 32 32 33 33 33
33 33 33 33 33 33 33 33 32 32 33 32 32 33 33 32 31 31 30 30 30 29 30 30 30 30 31 32 32 32 31 31 31 32 32 32 32 32 32 33 33 33 33
Wind_Direction
284 285 288 290 290 289 288 287 286 285 285 285 287 287 286 287 287 287 285 284 284 285 283 282 283 284 283 284 283 283 283 282 280 279 279 280 282 283 283 282 281 281 281
288 289 289 290 291 290 289 289 287 285 284 285 289 288 287 287 288 288 287 286 284 285 284 285 284 284 285 283 283 282 282 281 280 280 280 279 280 281 281 283 284 284 282
286 286 287 287 289 289 288 288 289 286 285 286 288 287 287 288 288 288 288 286 285 284 283 284 286 286 285 284 284 283 283 281 281 281 281 280 280 281 281 281 282 282 281
284 284 285 286 288 289 287 287 289 288 287 285 286 286 286 286 287 287 286 286 286 285 284 284 284 286 284 284 284 283 283 282 282 282 282 281 281 281 282 282 282 282 281
284 284 284 284 286 287 286 287 288 288 287 288 287 285 284 285 286 286 286 285 284 283 284 284 285 286 286 284 283 283 282 281 281 282 282 282 281 281 281 282 282 282 281
284 284 285 285 285 285 286 287 288 290 289 290 288 286 285 285 286 285 285 284 283 283 283 284 284 286 286 286 284 284 283 282 281 281 281 282 282 281 281 281 282 281 281
283 284 286 286 285 284 285 287 288 290 291 290 289 287 286 285 284 284 283 283 282 283 283 284 286 287 286 287 286 285 283 282 281 281 282 283 283 283 282 283 283 283 283
284 285 285 284 283 284 285 288 289 290 291 290 288 287 286 286 286 285 283 282 282 283 284 285 284 284 286 287 287 286 285 284 283 283 283 284 284 285 285 285 285 284 284
285 285 284 283 283 284 285 287 287 289 289 289 288 287 286 287 287 286 286 283 282 282 282 282 283 283 284 286 288 288 286 284 285 284 283 283 284 285 285 284 284 284 284
283 283 283 282 283 284 285 287 287 288 287 287 287 287 286 286 285 285 286 285 282 281 281 282 283 284 285 285 287 289 287 285 285 285 285 284 284 284 285 285 285 284 284
282 282 282 282 281 283 284 285 286 286 286 286 287 286 286 286 285 285 286 286 283 280 279 280 282 283 285 286 288 289 289 287 286 286 286 284 283 283 284 284 285 285 286
281 283 282 281 280 281 282 283 284 284 285 286 286 286 286 285 284 285 286 286 284 280 279 280 281 283 284 286 287 288 289 288 287 286 285 284 284 285 286 286 287 287 286
280 281 281 281 281 281 281 281 282 282 284 285 284 285 285 285 284 284 286 285 283 281 280 281 282 282 283 284 286 288 287 287 286 286 286 285 286 287 288 287 287 287 286
279 279 280 281 281 281 281 280 281 281 282 282 282 282 283 284 284 283 284 284 283 281 280 280 281 282 282 283 286 287 287 287 288 288 288 287 288 288 288 288 287 286 286
280 279 280 281 282 282 282 281 281 281 281 280 280 281 283 283 282 281 281 281 281 280 280 281 281 282 283 284 284 286 287 286 288 289 289 289 290 290 289 288 288 287 286
279 279 279 280 281 282 282 281 281 281 279 279 280 280 282 282 280 280 279 278 278 279 280 280 280 281 281 282 283 284 285 285 287 288 290 290 291 290 289 288 288 288 287
279 279 279 280 281 281 281 281 281 281 279 278 280 280 281 281 280 279 278 277 278 279 281 281 280 281 281 281 281 284 285 285 288 289 289 290 291 290 289 288 288 287 286
277 279 279 280 281 282 282 282 282 282 280 277 277 277 278 280 279 279 279 279 280 281 282 282 281 281 281 280 281 284 284 285 287 288 288 289 290 291 290 289 288 287 288
276 277 279 281 281 281 282 282 282 282 281 278 277 276 276 277 277 279 279 280 281 281 281 281 281 281 280 280 281 283 283 285 286 287 288 289 290 290 290 289 288 288 289
276 277 279 280 281 282 282 281 281 281 279 278 278 276 276 275 276 278 280 281 281 280 280 279 279 279 279 280 281 282 283 285 286 288 289 290 290 290 290 289 288 289 289
277 278 278 280 282 282 282 281 280 280 278 277 277 276 277 275 275 277 279 280 281 280 280 279 279 279 279 280 282 283 283 284 286 288 289 290 290 289 289 290 290 290 290
278 278 279 280 280 281 282 281 280 278 277 277 277 275 276 277 277 278 278 278 278 278 279 279 278 278 278 279 282 283 283 284 285 286 288 289 290 289 290 289 290 290 291
279 279 279 280 281 281 281 281 281 278 277 277 276 275 275 277 278 279 279 277 277 278 279 280 279 278 279 280 281 283 283 283 284 286 287 288 288 288 289 290 290 290 290
279 279 280 280 281 281 281 281 279 277 278 277 276 275 275 276 277 278 278 278 278 277 277 278 278 278 278 281 282 284 285 284 285 286 287 288 288 289 290 290 291 292 292
279 279 279 279 280 280 280 280 278 277 277 277 277 276 276 276 276 276 277 277 277 277 277 278 278 278 279 281 283 284 286 285 284 285 286 288 288 288 289 290 291 292 293
279 279 280 280 280 280 280 280 278 278 278 278 278 277 276 275 275 275 276 276 276 277 277 278 280 280 280 280 282 284 285 285 286 287 287 288 289 289 290 290 291 291 292
Height
5837 5836 5835 5834 5833 5832 5831 5830 5830 5829 5828 5827 5826 5825 5824 5823 5823 5821 5820 5819 5818 5817 5816 5815 5814 5813 5812 5811 5810 5809 5808 5807 5806 5805 5804 5803 5802 5801 5800 5799 5798 5797 5795
5833 5833 5832 5831 5830 5829 5828 5827 5826 5825 5824 5823 5822 5821 5820 5819 5818 5817 5815 5814 5813 5812 5811 5810 5809 5808 5807 5805 5804 5803 5802 5801 5801 5800 5799 5798 5796 5795 5794 5793 5792 5790 5789
5830 5829 5828 5827 5826 5825 5824 5823 5822 5821 5820 5819 5818 5816 5815 5814 5813 5812 5810 5809 5808 5807 5806 5805 5804 5802 5801 5800 5799 5798 5797 5796 5795 5794 5793 5792 5791 5789 5788 5786 5785 5784 5783
5826 5825 5824 5823 5822 5821 5820 5819 5818 5816 5815 5814 5813 5811 5810 5809 5807 5806 5805 5803 5802 5801 5800 5799 5798 5797 5795 5794 5793 5792 5791 5790 5789 5787 5787 5786 5785 5783 5782 5780 5779 5778 5777
5822 5821 5820 5819 5818 5816 5815 5814 5813 5812 5810 5809 5807 5806 5804 5803 5801 5800 5799 5797 5796 5795 5794 5793 5792 5790 5789 5788 5786 5785 5784 5783 5782 5781 5780 5779 5778 5777 5775 5774 5772 5771 5769
5817 5816 5815 5814 5812 5811 5810 5809 5808 5806 5804 5803 5801 5800 5798 5797 5795 5794 5792 5791 5790 5789 5788 5786 5785 5784 5782 5781 5780 5779 5778 5777 5776 5775 5773 5772 5771 5770 5768 5767 5765 5764 5762
5812 5811 5809 5808 5807 5806 5805 5804 5802 5800 5799 5797 5795 5793 5792 5790 5788 5787 5786 5784 5783 5782 5781 5780 5778 5777 5776 5774 5773 5772 5770 5769 5769 5767 5766 5765 5764 5762 5761 5759 5757 5756 5754
5806 5804 5803 5802 5801 5800 5799 5797 5796 5794 5792 5791 5788 5787 5785 5783 5782 5780 5779 5777 5776 5775 5774 5773 5771 5770 5769 5768 5766 5765 5763 5762 5761 5760 5759 5757 5756 5754 5752 5751 5749 5747 5746
5799 5798 5797 5795 5794 5793 5792 5790 5789 5787 5786 5784 5782 5780 5778 5776 5775 5773 5771 5770 5769 5767 5766 5765 5764 5763 5762 5761 5759 5758 5756 5754 5753 5752 5750 5749 5747 5745 5744 5742 5740 5739 5737
5792 5791 5790 5788 5787 5786 5784 5783 5782 5780 5778 5776 5774 5773 5771 5769 5767 5765 5763 5762 5761 5760 5759 5758 5756 5755 5754 5753 5752 5750 5748 5747 5745 5744 5742 5740 5738 5736 5734 5732 5731 5729 5727
5784 5783 5782 5780 5779 5778 5777 5775 5774 5772 5770 5769 5767 5765 5763 5762 5759 5757 5755 5754 5752 5751 5751 5750 5749 5748 5746 5745 5744 5742 5740 5739 5737 5735 5733 5731 5729 5727 5725 5723 5721 5719 5717
5776 5775 5773 5772 5770 5769 5768 5766 5765 5763 5762 5760 5758 5757 5755 5754 5751 5749 5747 5745 5744 5743 5742 5742 5741 5740 5738 5737 5736 5734 5732 5730 5728 5726 5724 5722 5720 5718 5715 5713 5711 5709 5707
5767 5766 5765 5763 5762 5760 5759 5757 5755 5754 5753 5752 5750 5749 5747 5745 5743 5741 5739 5737 5735 5734 5734 5733 5732 5731 5730 5729 5727 5725 5723 5721 5719 5717 5715 5713 5711 5708 5706 5703 5700 5698 5696
5759 5758 5756 5754 5753 5751 5750 5748 5746 5745 5744 5742 5741 5740 5738 5737 5735 5733 5731 5729 5727 5726 5725 5724 5723 5722 5721 5720 5718 5716 5714 5712 5710 5708 5706 5703 5701 5698 5696 5693 5690 5687 5686
5750 5749 5747 5745 5744 5742 5740 5738 5737 5736 5734 5733 5732 5731 5730 5728 5726 5724 5722 5721 5719 5718 5717 5716 5715 5714 5712 5711 5709 5707 5705 5703 5701 5699 5696 5694 5691 5688 5686 5683 5680 5678 5676
5740 5739 5738 5736 5734 5733 5731 5729 5727 5726 5725 5724 5722 5721 5720 5718 5716 5715 5713 5712 5710 5709 5708 5707 5706 5704 5703 5702 5700 5698 5696 5694 5692 5689 5687 5685 5682 5679 5677 5674 5671 5669 5666
5731 5729 5728 5726 5725 5723 5721 5720 5718 5717 5715 5714 5713 5711 5710 5709 5707 5705 5704 5703 5701 5700 5699 5698 5696 5695 5694 5692 5690 5689 5686 5685 5683 5680 5678 5675 5673 5670 5667 5665 5662 5660 5658
5720 5719 5718 5716 5715 5713 5712 5710 5709 5707 5706 5704 5703 5702 5700 5699 5698 5696 5695 5694 5692 5691 5690 5688 5687 5685 5684 5683 5681 5679 5678 5676 5674 5671 5669 5666 5664 5661 5659 5656 5654 5652 5649
5710 5709 5708 5706 5705 5703 5702 5700 5699 5697 5696 5694 5693 5692 5691 5690 5688 5687 5686 5685 5684 5682 5680 5679 5677 5676 5674 5673 5672 5670 5668 5667 5665 5662 5660 5657 5655 5652 5650 5647 5645 5643 5640
5700 5699 5698 5696 5695 5693 5692 5690 5689 5687 5686 5685 5684 5682 5681 5680 5679 5677 5676 5675 5674 5672 5671 5669 5668 5666 5665 5664 5662 5660 5659 5657 5655 5653 5651 5648 5646 5643 5641 5638 5636 5633 5631
5690 5689 5688 5686 5684 5683 5681 5680 5678 5677 5676 5675 5674 5672 5671 5670 5669 5667 5666 5665 5664 5662 5661 5659 5658 5657 5655 5654 5652 5651 5649 5648 5646 5644 5641 5639 5636 5634 5632 5629 5626 5624 5621
5680 5679 5677 5676 5674 5672 5671 5669 5668 5666 5665 5664 5663 5662 5660 5659 5658 5657 5656 5655 5653 5652 5650 5649 5648 5647 5645 5644 5643 5641 5639 5638 5636 5634 5632 5629 5627 5625 5622 5620 5617 5614 5612
5669 5668 5667 5665 5664 5662 5660 5659 5657 5656 5655 5654 5653 5652 5650 5649 5648 5647 5646 5644 5643 5642 5640 5639 5638 5637 5636 5634 5633 5631 5629 5628 5626 5624 5622 5619 5617 5615 5613 5610 5607 5605 5602
5659 5658 5656 5655 5653 5652 5650 5649 5647 5646 5645 5643 5642 5641 5640 5639 5638 5637 5635 5634 5633 5632 5631 5630 5628 5627 5626 5625 5623 5621 5619 5618 5616 5614 5612 5609 5607 5605 5603 5600 5598 5595 5592
5648 5647 5645 5644 5642 5641 5639 5638 5637 5635 5634 5633 5632 5630 5630 5629 5628 5626 5625 5624 5623 5622 5621 5620 5619 5618 5616 5615 5613 5611 5610 5608 5606 5604 5601 5599 5597 5595 5592 5590 5588 5585 5582
5637 5636 5634 5633 5631 5630 5629 5627 5626 5625 5624 5622 5621 5620 5619 5618 5617 5616 5615 5614 5613 5612 5612 5611 5609 5608 5607 5605 5603 5601 5599 5597 5595 5593 5591 5589 5587 5585 5582 5580 5577 5575 5572